Weather in Gor'kaya Balka

Russia / Stavropol Krai     44°16′13″N   43°58′42″E
temp.,
°C
wind,
m/s
gust,
m/s
humid.,
%
clouds,
%
prec.,
mm/h
press.,
hPa
HPBL,
m
26 july, mon
mon2600:00+25se4104796 0.0 1016345
03:00+21ese36640 0.0 101696
06:00+21e37611 0.0 1017195
09:00+27ese7113827 0.0 10171269
12:00+29e783689 0.0 10161630
15:00+30e673445 0.1 10141656
18:00+28ene8114793 0.1 1014857
21:00+25e8135099 0.1 1015694
27 july, tue
tue2700:00+24ese71354100 0.0 1015676
03:00+23e41061100 0.0 1015546
06:00+22e31069100 0.1 1016487
09:00+21n3675100 0.6 1016241
12:00+20n5980100 3.4 1017253
15:00+21nne71364100 3.6 1016415
18:00+20nne61250100 0.0 1018439
21:00+18n1258100 0.2 101974
28 july, wed
wed2800:00+16wnw3480100 0.8 1019114
03:00+15wnw2384100 3.2 101991
06:00+15wsw1188100 2.2 102059
09:00+16w0183100 3.3 1020121
12:00+18ssw2375100 0.1 1020281
15:00+19s236891 0.1 1019351
18:00+20ssw23592 0.0 1019419
21:00+16ssw34720 0.0 101851
29 july, thu
thu2900:00+16ssw33770 0.0 101733
03:00+15ssw11770 0.0 101611
06:00+16s23740 0.0 101760
09:00+23ese34460 0.0 1017606
12:00+28ese46320 0.0 10151693
15:00+30ese45270 0.0 10142155
18:00+28e35340 0.0 1013138
21:00+23ene34360 0.0 101334
30 july, fri
fri3000:00+20se411421 0.0 1013196
03:00+18sse33565 0.0 101326
06:00+19e22610 0.0 101435
09:00+26e57450 0.0 1014821
12:00+30e67350 0.0 10121697
15:00+32ese56300 0.0 10102222
18:00+31e47300 0.0 1010237
21:00+24e5113984 0.0 1011241